This is the latest recevied weather packets stored in our database for station/object F4IRV-1. If no packets are shown the sender has not sent any weather packets the latest 10 day(s).
| Time | Temp. | Humidity | Pressure | Rain* | Wind** | Luminosity | Snow |
|---|---|---|---|---|---|---|---|
| 1777569141 | 26.11° C | 35% | 1008.4 hPa | - | - | - | - |
| 1777567700 | 25.56° C | 35% | 1008.2 hPa | - | - | - | - |
| 1777563378 | 25.56° C | 35% | 1007.8 hPa | - | - | - | - |
| 1777561937 | 25.56° C | 35% | 1007.6 hPa | - | - | - | - |
| 1777560497 | 25.56° C | 35% | 1007.6 hPa | - | - | - | - |
| 1777554378 | 25° C | 35% | 1007.8 hPa | - | - | - | - |
| 1777552936 | 25° C | 37% | 1007.8 hPa | - | - | - | - |
| 1777549696 | 24.44° C | 35% | 1007.7 hPa | - | - | - | - |
| 1777548254 | 23.89° C | 35% | 1007.7 hPa | - | - | - | - |
| 1777545377 | 23.33° C | 35% | 1007.9 hPa | - | - | - | - |
| 1777542495 | 22.78° C | 35% | 1007.9 hPa | - | - | - | - |
| 1777541054 | 22.22° C | 35% | 1007.9 hPa | - | - | - | - |
| 1777539614 | 22.22° C | 36% | 1007.8 hPa | - | - | - | - |
| 1777538172 | 21.67° C | 35% | 1007.7 hPa | - | - | - | - |
| 1777536737 | 21.67° C | 35% | 1007.8 hPa | - | - | - | - |
| 1777533853 | 21.67° C | 34% | 1007.2 hPa | - | - | - | - |
| 1777532415 | 21.67° C | 35% | 1007.2 hPa | - | - | - | - |
| 1777528828 | 21.67° C | 34% | 1006.8 hPa | - | - | - | - |
| 1777527385 | 21.67° C | 34% | 1006.5 hPa | - | - | - | - |
| 1777525583 | 21.67° C | 34% | 1006.4 hPa | - | - | - | - |
| 1777524149 | 21.67° C | 34% | 1006.3 hPa | - | - | - | - |
| 1777522704 | 22.22° C | 34% | 1006.2 hPa | - | - | - | - |
| 1777521264 | 22.22° C | 34% | 1006.2 hPa | - | - | - | - |
| 1777519822 | 22.22° C | 34% | 1005.8 hPa | - | - | - | - |
| 1777518383 | 22.22° C | 33% | 1005.8 hPa | - | - | - | - |
* Rain since midnight (hover to see other rain measurements)
** Current wind speed in m/s (hover to see current wind gust speed)